EW4336 Weather Reports


Display with metric or nautical units.
time (UTC)temp
F
wind
direction
speed
MPH
gust
MPH
rain 1hr
in
rain 24hr
in
rain mn
in
humidity
%
barometer
mb
20260509200731 65 142 0.0 4.0 0.00 0.20 0.17 68 1007.8
20260509195231 65 231 0.0 3.0 0.00 0.20 0.17 70 1007.9
20260509194231 65 159 1.0 4.0 0.00 0.20 0.17 71 1008.2
20260509193732 64 161 0.0 4.0 0.00 0.20 0.17 71 1008.3
20260509193231 64 207 1.0 4.0 0.00 0.20 0.17 69 1008.3
20260509192732 65 173 0.0 5.0 0.00 0.20 0.17 70 1008.4
20260509192230 65 200 0.0 5.0 0.00 0.20 0.17 70 1008.5
20260509191731 64 230 0.0 3.0 0.00 0.20 0.17 74 1008.5
20260509191231 63 117 0.0 5.0 0.00 0.20 0.17 72 1008.5
20260509190730 63 293 1.0 5.0 0.00 0.20 0.17 74 1008.5
20260509190229 62 223 0.0 4.0 0.00 0.20 0.17 76 1008.7
20260509185229 62 300 1.0 4.0 0.00 0.20 0.17 77 1008.8
20260509184729 63 265 0.0 2.0 0.00 0.20 0.17 74 1008.8
20260509184230 63 147 0.0 3.0 0.00 0.20 0.17 75 1008.8
20260509183731 63 157 0.0 3.0 0.00 0.20 0.17 77 1008.7
20260509182731 61 103 0.0 3.0 0.00 0.20 0.17 82 1008.9
20260509181731 60 259 0.0 3.0 0.00 0.20 0.17 82 1009.0
20260509181233 60 272 0.0 3.0 0.00 0.20 0.17 81 1009.2
20260509180732 60 182 0.0 1.0 0.00 0.20 0.17 83 1009.1
20260509180231 60 261 0.0 6.0 0.00 0.20 0.17 82 1009.1
20260509175732 60 169 0.0 6.0 0.00 0.20 0.17 81 1008.9
20260509175231 60 224 1.0 3.0 0.00 0.20 0.17 82 1009.1
20260509174731 60 158 0.0 3.0 0.00 0.20 0.17 81 1009.1
20260509174231 60 157 0.0 3.0 0.00 0.20 0.17 81 1009.1
20260509173731 60 159 0.0 4.0 0.00 0.20 0.17 82 1009.0
20260509173230 60 255 0.0 4.0 0.00 0.20 0.17 81 1008.9
20260509172731 60 274 1.0 2.0 0.00 0.20 0.17 83 1008.9
20260509172230 59 206 0.0 3.0 0.00 0.20 0.17 84 1008.8
20260509171732 59 233 1.0 4.0 0.00 0.20 0.17 85 1008.8
20260509171230 59 272 0.0 4.0 0.00 0.20 0.17 86 1008.8
20260509170732 59 266 1.0 4.0 0.00 0.20 0.17 84 1008.8
20260509170231 60 223 1.0 4.0 0.00 0.20 0.17 85 1008.8
20260509165732 60 221 0.0 4.0 0.00 0.20 0.17 86 1008.8
20260509164731 60 190 1.0 4.0 0.00 0.20 0.17 85 1008.7
20260509164231 60 166 0.0 4.0 0.00 0.20 0.17 87 1008.6
20260509162731 59 140 0.0 2.0 0.00 0.20 0.17 90 1008.8
20260509162231 58 206 0.0 1.0 0.01 0.20 0.17 92 1008.8
20260509161731 57 195 0.0 2.0 0.01 0.20 0.17 92 1008.9
20260509161232 56 195 0.0 2.0 0.01 0.20 0.17 92 1008.7
20260509160731 55 96 0.0 2.0 0.01 0.20 0.17 92 1008.7
20260509160232 54 158 0.0 1.0 0.01 0.20 0.17 92 1008.8
20260509155731 54 321 0.0 0.0 0.01 0.19 0.17 92 1008.8
20260509155230 53 321 0.0 2.0 0.01 0.19 0.17 92 1008.8
20260509154730 53 3 0.0 5.0 0.01 0.19 0.17 92 1008.9
20260509154230 53 228 2.0 5.0 0.02 0.19 0.17 92 1008.9
20260509153230 53 290 0.0 2.0 0.02 0.19 0.17 92 1008.8
20260509152730 53 281 0.0 3.0 0.02 0.19 0.17 92 1008.6
20260509152231 53 37 0.0 3.0 0.01 0.19 0.16 92 1008.6
20260509151731 53 216 0.0 3.0 0.01 0.19 0.16 92 1008.5
20260509151231 53 157 0.0 3.0 0.01 0.19 0.16 92 1008.6
20260509150732 53 138 0.0 1.0 0.01 0.19 0.16 92 1008.8
20260509150230 53 138 0.0 1.0 0.01 0.19 0.16 92 1008.9
20260509145231 53 169 0.0 2.0 0.01 0.18 0.16 92 1008.8
20260509144732 53 158 0.0 2.0 0.01 0.18 0.16 92 1008.8
20260509144231 53 114 0.0 2.0 0.01 0.18 0.15 92 1008.7
20260509143731 53 104 0.0 2.0 0.01 0.18 0.15 92 1008.6
20260509143231 53 213 0.0 2.0 0.01 0.18 0.15 92 1008.7
20260509142730 53 199 0.0 5.0 0.01 0.18 0.15 92 1008.8
20260509142231 52 138 1.0 5.0 0.01 0.18 0.15 92 1008.8
20260509141730 52 212 0.0 1.0 0.02 0.18 0.15 92 1008.9
20260509141231 52 128 0.0 1.0 0.03 0.18 0.15 92 1008.8
20260509140733 52 240 0.0 1.0 0.03 0.18 0.15 92 1008.8
20260509140231 52 155 0.0 2.0 0.04 0.18 0.15 92 1008.8
20260509135730 52 212 0.0 2.0 0.05 0.14 0.15 92 1008.9
20260509135232 52 120 0.0 1.0 0.06 0.14 0.15 92 1008.9
20260509134730 52 190 0.0 2.0 0.06 0.14 0.15 92 1009.0
20260509134232 52 158 0.0 2.0 0.05 0.14 0.14 92 1009.0
20260509133731 52 83 0.0 1.0 0.06 0.14 0.14 92 1009.0
20260509133231 52 247 0.0 1.0 0.06 0.14 0.14 92 1009.1
20260509132731 52 86 0.0 1.0 0.06 0.14 0.14 92 1009.1
20260509132231 52 161 0.0 4.0 0.07 0.14 0.14 92 1009.1
20260509131731 51 24 1.0 4.0 0.06 0.14 0.13 92 1009.0
20260509131231 51 135 0.0 1.0 0.06 0.14 0.12 92 1009.0
20260509130231 51 145 0.0 1.0 0.06 0.14 0.11 92 1009.1
20260509125731 51 157 0.0 1.0 0.05 0.08 0.10 92 1009.2
20260509124732 51 102 0.0 0.0 0.04 0.08 0.09 92 1009.3
20260509124230 51 147 0.0 0.0 0.04 0.08 0.08 92 1009.3
20260509123731 51 147 0.0 0.0 0.04 0.08 0.08 92 1009.2
20260509123231 51 227 0.0 0.0 0.04 0.08 0.08 92 1009.3
20260509122232 51 131 0.0 1.0 0.04 0.08 0.07 92 1009.4
20260509121230 51 125 0.0 1.0 0.04 0.08 0.06 92 1009.4
20260509120230 51 140 0.0 0.0 0.03 0.08 0.05 92 1009.3
20260509115730 51 127 0.0 0.0 0.03 0.05 0.05 92 1009.3
20260509114730 51 154 0.0 2.0 0.03 0.05 0.05 92 1009.3
20260509114231 51 159 0.0 1.0 0.03 0.05 0.05 92 1009.2
20260509113730 51 89 0.0 1.0 0.02 0.05 0.04 92 1009.2
20260509113232 51 62 0.0 2.0 0.02 0.05 0.04 92 1009.2
20260509112730 51 152 0.0 2.0 0.02 0.05 0.03 92 1009.2
20260509112232 51 154 0.0 1.0 0.01 0.05 0.03 92 1009.2
20260509111731 51 62 0.0 1.0 0.01 0.05 0.02 92 1009.1
20260509110730 51 154 0.0 0.0 0.01 0.05 0.02 92 1009.0
20260509110231 51 116 0.0 0.0 0.01 0.05 0.02 92 1009.0
20260509105731 51 117 0.0 0.0 0.01 0.04 0.02 92 1008.9
20260509105230 51 148 0.0 1.0 0.01 0.04 0.02 92 1008.8
20260509104731 51 159 0.0 1.0 0.01 0.04 0.02 92 1008.9
20260509103731 51 154 0.0 0.0 0.01 0.04 0.02 92 1008.8
20260509102732 51 92 0.0 3.0 0.02 0.04 0.02 92 1008.9
20260509102230 51 94 0.0 0.0 0.02 0.04 0.02 92 1009.0
20260509101731 51 116 0.0 1.0 0.01 0.04 0.01 92 1008.8
20260509101230 51 110 0.0 0.0 0.01 0.04 0.01 92 1008.8
20260509100729 51 125 0.0 0.0 0.01 0.04 0.01 92 1008.9
20260509100229 50 161 0.0 0.0 0.01 0.04 0.01 92 1008.9
20260509095729 50 134 0.0 0.0 0.01 0.03 0.01 92 1008.9
20260509095228 50 61 0.0 0.0 0.01 0.03 0.01 92 1009.0
20260509094728 50 61 0.0 0.0 0.01 0.03 0.01 92 1008.9
20260509093728 50 62 0.0 0.0 0.01 0.03 0.01 92 1009.1
20260509093229 50 62 0.0 0.0 0.00 0.03 0.00 92 1009.1
20260509092729 50 62 0.0 0.0 0.00 0.03 0.00 91 1009.2
20260509092229 49 62 0.0 0.0 0.00 0.03 0.00 91 1009.2
20260509091729 49 62 0.0 0.0 0.00 0.03 0.00 91 1009.4
20260509091230 49 92 0.0 0.0 0.00 0.03 0.00 91 1009.3
20260509090728 49 21 0.0 0.0 0.00 0.03 0.00 91 1009.3
20260509090230 49 21 0.0 0.0 0.00 0.03 0.00 91 1009.3
20260509085729 49 21 0.0 0.0 0.00 0.03 0.00 91 1009.4
20260509084230 49 11 0.0 0.0 0.00 0.03 0.00 91 1009.4
20260509083230 49 303 0.0 0.0 0.00 0.03 0.00 91 1009.2
20260509082730 49 303 0.0 0.0 0.00 0.03 0.00 91 1009.4
20260509082230 49 303 0.0 0.0 0.00 0.03 0.00 91 1009.3
20260509081731 49 303 0.0 0.0 0.00 0.03 0.00 91 1009.3
20260509081230 49 303 0.0 0.0 0.00 0.03 0.00 91 1009.3
20260509080730 49 295 0.0 0.0 0.00 0.03 0.00 91 1009.2
20260509080230 49 295 0.0 0.0 0.00 0.03 0.00 91 1009.2
20260509075730 49 295 0.0 0.0 0.00 0.03 0.00 91 1009.3
20260509075230 49 295 0.0 0.0 0.00 0.03 0.00 91 1009.4
20260509074730 49 295 0.0 0.0 0.00 0.03 0.00 91 1009.3
20260509074230 49 295 0.0 0.0 0.00 0.03 0.00 91 1009.2
20260509073730 49 295 0.0 0.0 0.00 0.03 0.00 91 1009.1
20260509072730 49 295 0.0 0.0 0.00 0.03 0.00 91 1008.8
20260509072230 49 295 0.0 0.0 0.00 0.03 0.00 91 1008.7
20260509071730 49 295 0.0 0.0 0.00 0.03 0.00 91 1008.8
20260509071231 49 295 0.0 0.0 0.00 0.03 0.00 91 1008.8
20260509070730 49 295 0.0 0.0 0.00 0.03 0.00 91 1008.8
20260509070231 49 295 0.0 0.0 0.00 0.03 0.00 91 1008.9
20260509065230 49 295 0.0 0.0 0.00 0.03 0.00 92 1008.9
20260509064730 49 295 0.0 0.0 0.00 0.03 0.00 92 1009.0
20260509064230 49 295 0.0 0.0 0.00 0.03 0.00 92 1009.0
20260509063731 49 295 0.0 0.0 0.00 0.03 0.00 92 1009.3
20260509063230 49 295 0.0 0.0 0.00 0.03 0.00 92 1009.3
20260509062730 49 295 0.0 0.0 0.00 0.03 0.00 92 1009.4
20260509062230 49 295 0.0 0.0 0.00 0.03 0.00 92 1009.5
20260509061729 49 295 0.0 0.0 0.00 0.03 0.00 92 1009.6
20260509061229 49 295 0.0 0.0 0.00 0.03 0.00 92 1009.7
20260509060732 49 295 0.0 0.0 0.00 0.03 0.00 92 1009.8
20260509060230 49 295 0.0 0.0 0.00 0.03 0.00 92 1009.8
20260509055731 49 295 0.0 0.0 0.00 0.03 0.00 92 1009.8
20260509054730 49 295 0.0 0.0 0.00 0.03 0.00 92 1010.0
20260509054230 49 295 0.0 0.0 0.00 0.03 0.00 92 1010.0
20260509053730 49 295 0.0 0.0 0.00 0.03 0.00 92 1010.1
20260509053230 49 295 0.0 0.0 0.00 0.03 0.00 92 1010.2
20260509052729 49 295 0.0 0.0 0.00 0.03 0.00 92 1010.2
20260509052230 49 295 0.0 0.0 0.00 0.03 0.00 92 1010.2
20260509051730 49 295 0.0 0.0 0.00 0.03 0.00 92 1010.2
20260509051230 49 295 0.0 0.0 0.00 0.03 0.00 92 1010.1
20260509050730 49 295 0.0 0.0 0.00 0.03 0.00 92 1010.1
20260509045730 49 295 0.0 0.0 0.00 0.03 0.00 92 1010.2
20260509045232 49 295 0.0 0.0 0.00 0.03 0.00 92 1010.2
20260509044730 49 295 0.0 0.0 0.00 0.03 0.00 92 1010.3
20260509044231 49 295 0.0 0.0 0.00 0.03 0.00 92 1010.3
20260509043230 49 295 0.0 0.0 0.01 0.03 0.00 92 1010.3
20260509042730 49 295 0.0 0.0 0.01 0.03 0.00 92 1010.4
20260509042230 49 295 0.0 0.0 0.01 0.03 0.00 92 1010.4
20260509041730 49 295 0.0 0.0 0.01 0.03 0.00 92 1010.6
20260509041229 49 295 0.0 0.0 0.01 0.03 0.00 92 1010.7
20260509040730 49 295 0.0 0.0 0.01 0.03 0.00 92 1010.8
20260509040230 50 295 0.0 0.0 0.01 0.03 0.00 92 1010.8
20260509035731 50 295 0.0 0.0 0.01 0.02 0.03 92 1010.8
20260509034731 50 295 0.0 0.0 0.01 0.02 0.03 92 1011.1
20260509033229 50 295 0.0 0.0 0.01 0.02 0.02 92 1011.5
20260509032230 50 295 0.0 0.0 0.01 0.02 0.02 92 1011.6
20260509031730 50 295 0.0 0.0 0.01 0.02 0.02 91 1011.6
20260509031231 51 295 0.0 0.0 0.01 0.02 0.02 91 1011.7
20260509030730 51 295 0.0 0.0 0.01 0.02 0.02 91 1011.7
20260509030230 51 295 0.0 0.0 0.01 0.02 0.02 91 1011.8
20260509025230 51 295 0.0 0.0 0.01 0.01 0.02 91 1012.0
20260509024729 51 295 0.0 0.0 0.01 0.01 0.02 91 1012.0
20260509024231 51 295 0.0 0.0 0.01 0.01 0.02 91 1012.0
20260509023729 51 295 0.0 0.0 0.00 0.01 0.01 91 1012.0
20260509023231 51 295 0.0 0.0 0.00 0.01 0.01 91 1012.1
20260509022730 51 295 0.0 0.0 0.01 0.01 0.01 91 1012.1
20260509022231 51 295 0.0 0.0 0.01 0.01 0.01 91 1011.9
20260509021730 51 295 0.0 0.0 0.01 0.01 0.01 91 1011.9
20260509021229 51 295 0.0 0.0 0.01 0.01 0.01 91 1011.8
20260509020730 51 295 0.0 0.0 0.01 0.01 0.01 90 1011.7
20260509020229 51 62 0.0 0.0 0.01 0.01 0.01 90 1011.6
20260509015730 51 63 0.0 0.0 0.01 0.00 0.01 90 1011.5
20260509014730 52 63 0.0 0.0 0.01 0.00 0.01 89 1011.3
20260509014229 52 63 0.0 0.0 0.01 0.00 0.01 88 1011.3
20260509013730 52 63 0.0 0.0 0.01 0.00 0.01 88 1011.1
20260509013229 52 63 0.0 0.0 0.01 0.00 0.01 88 1011.1
20260509012730 52 63 0.0 0.0 0.00 0.00 0.00 87 1011.0
20260509012229 52 63 0.0 0.0 0.00 0.00 0.00 87 1010.9
20260509011730 52 63 0.0 0.0 0.00 0.00 0.00 86 1010.8
20260509011230 53 63 0.0 0.0 0.00 0.00 0.00 86 1010.8
20260509010730 53 63 0.0 0.0 0.00 0.00 0.00 84 1010.5
20260509010229 53 63 0.0 0.0 0.00 0.00 0.00 84 1010.7
20260509005729 53 63 0.0 0.0 0.00 0.00 0.00 84 1010.4
20260509005230 53 63 0.0 0.0 0.00 0.00 0.00 85 1010.5
20260509004230 53 63 0.0 0.0 0.00 0.00 0.00 84 1010.3
20260509003729 53 63 0.0 0.0 0.00 0.00 0.00 83 1010.1
20260509003230 53 63 0.0 0.0 0.00 0.00 0.00 83 1010.3
20260509002730 53 63 0.0 0.0 0.00 0.00 0.00 82 1010.3
20260509002231 54 63 0.0 0.0 0.00 0.00 0.00 81 1010.3
20260509001231 54 63 0.0 0.0 0.00 0.00 0.00 80 1010.2
20260508235729 54 63 0.0 0.0 0.00 0.00 0.00 82 1010.3
20260508235229 54 63 0.0 0.0 0.00 0.00 0.00 82 1010.4
20260508234730 54 63 0.0 0.0 0.00 0.00 0.00 82 1010.4
20260508234227 54 62 0.0 0.0 0.00 0.00 0.00 84 1010.4
20260508233728 54 244 0.0 0.0 0.00 0.00 0.00 83 1010.5
20260508233228 54 244 0.0 0.0 0.00 0.00 0.00 82 1010.4
20260508232228 55 244 0.0 0.0 0.00 0.00 0.00 83 1010.6
20260508231729 55 244 0.0 0.0 0.00 0.00 0.00 83 1010.6
20260508231228 55 244 0.0 0.0 0.00 0.00 0.00 82 1010.5
20260508230728 55 244 0.0 0.0 0.00 0.00 0.00 81 1010.5
20260508230228 55 244 0.0 0.0 0.00 0.00 0.00 81 1010.5
20260508225728 55 244 0.0 0.0 0.00 0.00 0.00 80 1010.6
20260508225227 55 244 0.0 0.0 0.00 0.00 0.00 80 1010.5
20260508224728 55 244 0.0 0.0 0.00 0.00 0.00 79 1010.5
20260508224229 55 244 0.0 0.0 0.00 0.00 0.00 78 1010.7
20260508223730 55 244 0.0 0.0 0.00 0.00 0.00 76 1010.7
20260508222231 56 244 0.0 0.0 0.00 0.00 0.00 74 1010.6
20260508221729 56 244 0.0 0.0 0.00 0.00 0.00 71 1010.4
20260508220729 56 244 0.0 0.0 0.00 0.00 0.00 71 1010.6
20260508220229 57 244 0.0 0.0 0.00 0.00 0.00 68 1010.5
20260508215730 57 244 0.0 0.0 0.00 0.00 0.00 67 1010.5
20260508215229 57 244 0.0 0.0 0.00 0.00 0.00 67 1010.5
20260508214730 57 244 0.0 0.0 0.00 0.00 0.00 67 1010.6
20260508214232 57 244 0.0 0.0 0.00 0.00 0.00 67 1010.5
20260508213229 57 244 0.0 3.0 0.00 0.00 0.00 67 1010.6
20260508212731 57 244 0.0 3.0 0.00 0.00 0.00 69 1010.6
20260508212230 57 293 0.0 1.0 0.00 0.00 0.00 70 1010.6
20260508210229 57 252 0.0 0.0 0.00 0.00 0.00 71 1010.9
20260508205729 56 252 0.0 0.0 0.00 0.00 0.00 71 1011.0
20260508205229 56 252 0.0 0.0 0.00 0.00 0.00 71 1011.0
20260508204729 56 252 0.0 0.0 0.00 0.00 0.00 76 1011.1
20260508204229 56 252 0.0 0.0 0.00 0.00 0.00 76 1011.2
20260508203729 56 252 0.0 0.0 0.00 0.00 0.00 76 1011.1
20260508203230 56 252 0.0 0.0 0.00 0.00 0.00 74 1011.3
20260508202729 56 252 0.0 0.0 0.00 0.00 0.00 73 1011.3
20260508202229 56 252 0.0 0.0 0.00 0.00 0.00 73 1011.5
20260508201729 56 252 0.0 0.0 0.00 0.00 0.00 77 1011.6
20260508201229 56 252 0.0 0.0 0.00 0.00 0.00 75 1011.8